[[{"header":{"parameterUnit":"m.s-1","parameterCategory":1,"la1":30.2991,"la2":30.254,"lo1":-89.0895,"lo2":-89.0444,"dy":0.0017,"dx":0.0017,"nx":28,"ny":28,"refTime":"2024-05-20T21:00:00:Z","depth":0,"parameterNumber":2,"parameterNumberName":"U-component_of_WINDS"},"data":[0,0,0,0,0,0,0,0,0,0,0,0,0,0,0,0,0,0,0,0,0,0,0,0,0,0,0,0,0,0,0,0,0,0,0,0,0,0,0,0,0,0,0,0,0,0,0,0,0,0,0,0,0,0,0,0,0,0,-3.0418,-3.0418,0,-3.0379,-3.0379,-3.0379,-3.0317,-3.0316,-3.0314,-3.0313,-3.0274,-3.0274,-3.0274,0,0,0,0,0,0,0,0,0,0,0,0,0,-3.044,-3.044,-3.0418,-3.0418,-3.0417,-3.0379,-3.0379,-3.0378,-3.0317,-3.0316,-3.0314,-3.0313,-3.0274,-3.0274,-3.0274,0,0,0,0,0,0,0,0,0,0,0,0,0,-3.0419,-3.044,-3.0418,-3.0382,-3.0378,-3.038,-3.0379,-3.0378,-3.0317,-3.0315,-3.0314,-3.0312,-3.0274,-3.0274,-3.0274,-3.0308,0,0,-3.0274,-3.0274,0,0,0,0,0,0,0,0,-3.042,-3.0418,-3.0388,-3.0384,-3.038,-3.0351,-3.0372,-3.0355,-3.0318,-3.034,-3.0313,-3.0311,-3.0301,-3.0299,-3.0295,-3.0306,-3.0304,-3.0274,-3.0274,-3.0274,-3.0274,0,0,0,0,0,0,0,-3.0422,-3.042,-3.0403,-3.0387,-3.0383,-3.0368,-3.0363,-3.0369,-3.0331,-3.0338,-3.0334,-3.033,-3.0299,-3.0295,-3.0294,-3.0304,-3.0274,-3.0274,-3.0274,-3.0274,-3.0342,-3.0343,0,0,0,0,0,0,-3.0429,-3.0421,-3.0404,-3.0402,-3.0397,-3.0369,-3.0364,-3.0362,-3.033,-3.0324,-3.0331,-3.0327,-3.0296,-3.0294,-3.0292,-3.033,-3.0274,-3.0274,-3.0274,-3.034,-3.0342,-3.0344,0,0,0,0,0,0,-3.0429,-3.0428,-3.0405,-3.041,-3.0406,-3.037,-3.0369,-3.0362,-3.0359,-3.0325,-3.0318,-3.0335,-3.0295,-3.0292,-3.0305,-3.0327,-3.0274,-3.0274,-3.0338,-3.0341,-3.0343,-3.0405,0,0,0,0,0,0,-3.043,-3.0428,-3.044,-3.0411,-3.0406,-3.0418,-3.0371,-3.0363,-3.0359,-3.0353,-3.0327,-3.0321,-3.0293,-3.0305,-3.0305,-3.0326,-3.0274,-3.0336,-3.0339,-3.0342,-3.0401,-3.0409,-3.0417,0,0,0,0,0,-3.0431,-3.0459,-3.0441,-3.0439,-3.042,-3.0419,-3.0417,-3.0385,-3.0361,-3.0373,-3.0352,-3.0321,-3.0326,-3.0307,-3.0306,-3.0328,-3.0334,-3.0338,-3.0342,-3.0397,-3.0408,-3.0417,0,0,0,0,0,0,-3.0491,-3.0454,-3.0434,-3.0453,-3.044,-3.0409,-3.0423,-3.0397,-3.039,-3.0385,-3.0346,-3.0341,-3.0358,-3.0345,-3.0324,-3.036,-3.0325,-3.0329,-3.0367,-3.0377,-3.0385,-3.0387,-3.0274,0,0,0,0,0,-3.0506,-3.0508,-3.0477,-3.0496,-3.0491,-3.0459,-3.0457,-3.0434,-3.0419,-3.0413,-3.0392,-3.0379,-3.0377,-3.0377,-3.0374,-3.04,-3.0393,-3.0415,-3.0423,-3.043,-3.0433,-3.0446,-3.0455,-3.0357,-3.0357,-3.0357,0,0,-3.0538,-3.0518,-3.0522,-3.0508,-3.0495,-3.0499,-3.0454,-3.0459,-3.0462,-3.0413,-3.0423,-3.0409,-3.0392,-3.0411,-3.0419,-3.04,-3.0459,-3.0435,-3.044,-3.044,-3.0451,-3.0461,-3.0469,-3.036,-3.036,-3.0359,0,0,-3.0597,-3.0582,-3.0597,-3.0586,-3.0568,-3.0546,-3.055,-3.0524,-3.0512,-3.0522,-3.0486,-3.0489,-3.0487,-3.0477,-3.0471,-3.053,-3.0501,-3.053,-3.0571,-3.0585,-3.0593,-3.0599,-3.062,-3.0627,-3.0534,-3.0534,-3.0534,0,-3.0638,-3.0641,-3.0608,-3.0616,-3.0612,-3.057,-3.0585,-3.0576,-3.0557,-3.0555,-3.0535,-3.0533,-3.0518,-3.0535,-3.055,-3.0547,-3.055,-3.0531,-3.0594,-3.0601,-3.0606,-3.0625,-3.0633,-3.0538,-3.0537,-3.0537,-3.0536,0,-3.0693,-3.0697,-3.0711,-3.0695,-3.0692,-3.0704,-3.0673,-3.0675,-3.0653,-3.0634,-3.0646,-3.0627,-3.062,-3.0623,-3.0601,-3.0637,-3.0626,-3.0601,-3.0565,-3.062,-3.0637,-3.0644,-3.0543,-3.0541,-3.054,-3.0539,0,0,-3.0785,-3.0752,-3.0758,-3.0751,-3.0729,-3.0731,-3.0742,-3.0735,-3.0737,-3.0727,-3.0735,-3.0736,-3.0713,-3.0707,-3.0684,-3.0696,-3.0744,-3.0669,-3.0668,-3.0683,-3.0782,-3.08,-3.0809,-3.0726,-3.0727,-3.0728,-3.0783,0,-3.0838,-3.0854,-3.0826,-3.0848,-3.0851,-3.0813,-3.0823,-3.0811,-3.0794,-3.0795,-3.0777,-3.0778,-3.0748,-3.0744,-3.0755,-3.0736,-3.0763,-3.0732,-3.0733,-3.0733,-3.0736,-3.0818,-3.0836,-3.0888,-3.079,-3.0791,-3.0792,0,-3.0901,-3.0895,-3.0918,-3.0896,-3.0896,-3.0905,-3.0897,-3.0899,-3.0885,-3.0873,-3.0867,-3.0841,-3.0851,-3.0819,-3.0832,-3.0812,-3.0811,-3.0802,-3.0804,-3.0801,-3.0764,-3.0816,-3.0904,-3.0912,-3.0802,-3.0801,-3.08,0,-3.0965,-3.0963,-3.0976,-3.0971,-3.0946,-3.0953,-3.0943,-3.0928,-3.0927,-3.0921,-3.0919,-3.0915,-3.0912,-3.0909,-3.0883,-3.0862,-3.09,-3.0865,-3.0889,-3.089,-3.0897,-3.0896,-3.0985,-3.09,-3.09,-3.09,-3.0899,0,-3.1026,-3.1041,-3.1004,-3.1012,-3.1029,-3.0998,-3.1015,-3.1002,-3.0989,-3.0994,-3.0962,-3.0968,-3.0934,-3.0936,-3.0916,-3.0931,-3.093,-3.092,-3.0914,-3.0922,-3.0923,-3.0919,-3.0914,-3.0902,-3.0901,-3.0901,-3.09,0,-3.1099,-3.1075,-3.1086,-3.1063,-3.1058,-3.1071,-3.1051,-3.1058,-3.1041,-3.1048,-3.1048,-3.1021,-3.1022,-3.0997,-3.0993,-3.098,-3.1003,-3.0991,-3.1007,-3.1003,-3.1028,-3.1025,-3.1116,-3.1126,-3.1036,-3.1037,-3.1038,0,-3.1138,-3.1149,-3.1127,-3.1129,-3.112,-3.1123,-3.1121,-3.1093,-3.1092,-3.1079,-3.1088,-3.1087,-3.1084,-3.1089,-3.1069,-3.1067,-3.1054,-3.1086,-3.1053,-3.1061,-3.1053,-3.1052,-3.1053,-3.1092,-3.1093,-3.1094,-3.1095,0,-3.1211,-3.1199,-3.1198,-3.1193,-3.1192,-3.1187,-3.118,-3.1183,-3.1152,-3.1154,-3.1155,-3.1153,-3.115,-3.115,-3.1144,-3.1135,-3.111,-3.1106,-3.1111,-3.1118,-3.1126,-3.1121,-3.1024,-3.1103,-3.1102,-3.1102,-3.1101,-3.1101,-3.1267,-3.1275,-3.1261,-3.1262,-3.1254,-3.1249,-3.1254,-3.1238,-3.1239,-3.1234,-3.1218,-3.1222,-3.121,-3.12,-3.1193,-3.1197,-3.1181,-3.1189,-3.1191,-3.1193,-3.1197,-3.1128,-3.1196,-3.1196,-3.1195,-3.1195,-3.1195,0,-3.1337,-3.1327,-3.1327,-3.1319,-3.132,-3.1298,-3.129,-3.1291,-3.1296,-3.1287,-3.1286,-3.1288,-3.1288,-3.127,-3.1268,-3.1274,-3.1263,-3.1275,-3.1273,-3.1271,-3.1212,-3.1207,-3.1284,-3.1284,-3.1284,-3.1284,-3.1284,-3.1284,-3.1373,-3.1386,-3.1373,-3.1382,-3.1372,-3.1376,-3.1373,-3.1369,-3.1362,-3.1366,-3.1366,-3.1354,-3.1342,-3.1339,-3.1339,-3.1333,-3.1333,-3.1349,-3.134,-3.1284,-3.1275,-3.1267,-3.1262,-3.135,-3.135,-3.1399,-3.1399,-3.1399]},{"header":{"parameterUnit":"m.s-1","parameterCategory":1,"la1":30.2991,"la2":30.254,"lo1":-89.0895,"lo2":-89.0444,"dy":0.0017,"dx":0.0017,"nx":28,"ny":28,"refTime":"2024-05-20T21:00:00:Z","depth":0,"parameterNumber":3,"parameterNumberName":"V-component_of_WINDS"},"data":[0,0,0,0,0,0,0,0,0,0,0,0,0,0,0,0,0,0,0,0,0,0,0,0,0,0,0,0,0,0,0,0,0,0,0,0,0,0,0,0,0,0,0,0,0,0,0,0,0,0,0,0,0,0,0,0,0,0,3.1314,3.1313,0,3.1278,3.1277,3.1277,3.1315,3.1317,3.1318,3.132,3.1277,3.1275,3.1272,0,0,0,0,0,0,0,0,0,0,0,0,0,3.1412,3.141,3.1314,3.1313,3.1313,3.1278,3.1277,3.1277,3.1315,3.1317,3.1318,3.132,3.1278,3.1275,3.1272,0,0,0,0,0,0,0,0,0,0,0,0,0,3.1372,3.1409,3.1314,3.1328,3.1329,3.1278,3.1277,3.1277,3.1314,3.1317,3.1319,3.1321,3.1279,3.1276,3.1272,3.1204,0,0,3.126,3.1259,0,0,0,0,0,0,0,0,3.1374,3.1368,3.1326,3.1327,3.1328,3.1303,3.1297,3.1252,3.1314,3.132,3.132,3.1322,3.1284,3.128,3.1268,3.1202,3.12,3.126,3.1258,3.1256,3.1255,0,0,0,0,0,0,0,3.1377,3.137,3.1299,3.1326,3.1326,3.1335,3.1331,3.1288,3.1289,3.1319,3.1322,3.1318,3.1285,3.1272,3.1267,3.12,3.126,3.1257,3.1254,3.1253,3.1077,3.1075,0,0,0,0,0,0,3.1378,3.1372,3.1301,3.1298,3.1357,3.1331,3.1327,3.1309,3.129,3.129,3.1316,3.132,3.1277,3.1272,3.1266,3.1186,3.1256,3.1253,3.125,3.1079,3.1077,3.1074,0,0,0,0,0,0,3.138,3.1372,3.1302,3.1336,3.1328,3.1327,3.1306,3.1307,3.1294,3.1288,3.1287,3.1302,3.1278,3.1271,3.122,3.1185,3.1251,3.1247,3.1082,3.1079,3.1075,3.1025,0,0,0,0,0,0,3.1383,3.1372,3.1347,3.1335,3.1326,3.1257,3.1304,3.1305,3.1288,3.1293,3.1275,3.1274,3.128,3.1225,3.1216,3.1181,3.1245,3.1085,3.1081,3.1076,3.1029,3.102,3.1011,0,0,0,0,0,3.1386,3.1333,3.1346,3.1337,3.1295,3.1255,3.125,3.1259,3.1285,3.1259,3.1256,3.1275,3.1191,3.122,3.121,3.1173,3.1088,3.1082,3.1077,3.1033,3.1022,3.1012,0,0,0,0,0,0,3.1339,3.1332,3.1346,3.1287,3.1272,3.1262,3.123,3.1246,3.1221,3.1226,3.1237,3.1233,3.1178,3.117,3.1203,3.1107,3.1143,3.1135,3.1114,3.1102,3.1094,3.1096,3.1241,0,0,0,0,0,3.1322,3.1292,3.1287,3.1235,3.1227,3.123,3.1213,3.1221,3.1205,3.1198,3.1191,3.1173,3.1143,3.1122,3.1094,3.1029,3.1026,3.0999,3.099,3.0983,3.0975,3.0941,3.0929,3.1056,3.1056,3.1056,0,0,3.1285,3.1278,3.1258,3.1226,3.1215,3.1182,3.1224,3.1187,3.1163,3.1192,3.1144,3.1137,3.1118,3.106,3.1034,3.1052,3.094,3.0976,3.097,3.0967,3.0934,3.0922,3.0911,3.1052,3.1053,3.1054,0,0,3.1203,3.1194,3.1151,3.114,3.1124,3.1127,3.1116,3.1104,3.1102,3.1054,3.1076,3.1046,3.0994,3.098,3.0966,3.088,3.0897,3.087,3.0823,3.0789,3.0779,3.0771,3.074,3.0729,3.0864,3.0863,3.0863,0,3.1159,3.1113,3.1126,3.1089,3.1074,3.1102,3.1058,3.1046,3.102,3.1009,3.103,3.0966,3.0955,3.0894,3.0873,3.0861,3.0849,3.0872,3.078,3.0771,3.0763,3.0734,3.0723,3.086,3.0861,3.0861,3.0861,0,3.106,3.1028,3.0995,3.0972,3.0954,3.0913,3.0919,3.0899,3.0909,3.0909,3.086,3.0848,3.0819,3.0805,3.0814,3.0745,3.0757,3.0779,3.0816,3.0748,3.0721,3.071,3.0856,3.0857,3.0858,3.0859,0,0,3.0945,3.0932,3.092,3.091,3.0896,3.087,3.0831,3.0804,3.0786,3.0768,3.0735,3.0691,3.0711,3.0695,3.0703,3.0674,3.0607,3.0699,3.0699,3.0682,3.0531,3.0514,3.0501,3.0619,3.0617,3.0615,3.0532,0,3.0862,3.0796,3.0808,3.0743,3.0713,3.0739,3.0705,3.0692,3.0691,3.0665,3.0663,3.0632,3.0662,3.0652,3.0625,3.0621,3.0577,3.0627,3.0587,3.0585,3.059,3.0487,3.0469,3.0391,3.0522,3.052,3.0519,0,3.0756,3.0737,3.067,3.0661,3.0649,3.0618,3.0595,3.057,3.0555,3.0557,3.054,3.0554,3.0514,3.0553,3.0497,3.0531,3.0516,3.0512,3.0509,3.0505,3.0547,3.0479,3.0367,3.0355,3.0502,3.0504,3.0505,0,3.0679,3.0636,3.0591,3.0582,3.057,3.0548,3.0542,3.053,3.0514,3.0493,3.0482,3.0456,3.0442,3.0421,3.0427,3.0455,3.0371,3.0409,3.037,3.037,3.035,3.0351,3.0233,3.0341,3.0341,3.0341,3.0341,0,3.0585,3.0543,3.0556,3.0528,3.0481,3.0495,3.0448,3.0445,3.0434,3.0405,3.0426,3.0398,3.0409,3.0381,3.0385,3.0339,3.0332,3.0331,3.0333,3.0329,3.0329,3.0318,3.0324,3.0338,3.0339,3.0339,3.034,0,3.049,3.0498,3.045,3.0444,3.0442,3.0407,3.0402,3.0375,3.0377,3.034,3.0332,3.0334,3.0303,3.0308,3.0272,3.0275,3.0217,3.0225,3.0222,3.0224,3.0184,3.0188,3.0054,3.0037,3.0157,3.0156,3.0155,0,3.043,3.0398,3.039,3.0373,3.0366,3.0338,3.0322,3.0335,3.0317,3.0299,3.0274,3.0245,3.0223,3.0172,3.0169,3.0142,3.015,3.0105,3.0145,3.0143,3.0149,3.015,3.0147,3.0096,3.0095,3.0094,3.0093,0,3.0322,3.0327,3.0304,3.0283,3.0264,3.0247,3.0231,3.0216,3.0227,3.0206,3.0176,3.0158,3.0124,3.0094,3.007,3.0062,3.0079,3.008,3.007,3.0065,3.0065,3.0064,3.02,3.0083,3.0084,3.0085,3.0085,3.0086,3.0242,3.0216,3.0206,3.018,3.0171,3.0156,3.0131,3.0131,3.0106,3.008,3.0089,3.0054,3.0041,3.001,3.0,2.9972,2.9989,2.9973,2.9969,2.9965,2.996,3.007,2.9968,2.9968,2.9968,2.9968,2.9969,0,3.0135,3.0131,3.0107,3.0086,3.0065,3.0086,3.007,3.0051,3.0021,3.0008,2.9987,2.9952,2.9924,2.992,2.9893,2.9872,2.9879,2.9864,2.9866,2.9864,2.9947,2.9959,2.9859,2.9859,2.9859,2.9859,2.9859,2.9859,3.0076,3.0033,3.0038,2.999,2.9986,2.9953,2.9943,2.993,2.992,2.9881,2.9859,2.9857,2.9848,2.9821,2.9796,2.9796,2.9785,2.9767,2.9769,2.9847,2.9858,2.9868,2.9879,2.9765,2.9765,2.9688,2.9688,2.9687]}]]